Theta_e
313 313 313 313 313 313 314 314 314 314 315 316 316 316 315 315 315 315 316 318 321 319 318 323 327 334 336 332 331 332 340 346 348 346 342 341 340 343 341 344 344 347 337 351 356
313 313 313 313 313 314 314 314 314 314 315 316 316 317 317 317 316 317 320 319 321 320 317 328 332 334 333 330 331 331 337 340 341 340 342 340 340 339 340 337 336 352 355 358 356
314 314 314 314 314 314 314 314 314 315 315 316 316 318 319 318 326 332 324 323 321 319 317 324 328 331 330 328 329 332 344 340 338 339 341 338 340 338 342 342 337 342 358 357 355
314 314 314 314 314 314 315 315 315 315 315 316 316 317 319 319 336 333 325 322 320 318 326 327 329 329 326 325 328 330 337 342 343 342 342 336 337 343 339 342 339 342 357 355 353
313 313 313 314 314 314 315 315 315 315 316 316 316 317 319 327 332 331 323 324 319 318 329 330 329 327 324 325 327 330 335 337 340 339 338 337 337 342 342 344 339 344 357 356 355
312 312 313 313 313 314 314 315 315 316 316 316 317 317 319 334 329 328 324 327 320 319 327 328 326 326 326 326 327 332 333 333 338 338 337 336 336 335 343 347 341 351 356 355 354
312 312 312 312 313 313 313 314 315 316 316 316 317 317 318 325 328 328 323 327 324 323 328 326 326 326 327 328 330 333 333 331 334 337 337 337 338 335 338 346 349 351 355 355 352
312 312 313 313 313 313 313 314 314 315 316 316 317 318 320 331 328 327 324 326 326 328 327 326 326 327 328 331 333 331 332 334 337 337 337 335 334 338 336 338 340 353 354 354 351
312 313 314 314 314 314 313 314 314 315 317 317 319 336 330 330 328 327 327 328 329 328 326 326 328 331 333 331 329 331 333 339 338 336 337 336 336 342 340 337 341 343 351 352 350
313 313 314 314 315 315 313 315 322 321 324 321 319 326 327 331 330 327 327 329 327 325 325 326 329 328 328 328 330 333 338 340 338 340 335 336 337 341 339 338 341 345 345 344 349
313 314 314 315 315 315 317 324 324 331 321 331 327 321 326 329 328 328 326 329 327 325 324 327 325 325 327 328 330 330 331 340 339 339 336 337 336 343 339 341 338 337 332 338 350
311 313 314 315 314 315 315 321 320 318 319 319 321 323 327 328 330 328 326 328 327 326 325 324 323 325 329 329 329 328 328 330 333 337 336 334 336 341 340 336 335 336 335 337 346
308 309 312 314 314 319 321 320 321 319 320 321 321 322 324 324 330 330 328 326 327 327 327 324 325 327 327 326 326 325 326 327 330 330 332 335 336 340 338 334 333 339 339 344 339
306 307 308 310 313 319 320 320 318 319 320 323 322 323 323 324 324 328 327 325 326 327 328 328 328 329 328 326 325 322 325 326 329 329 328 331 329 342 338 334 335 336 335 339 344
307 307 307 309 313 317 318 319 317 319 326 327 324 325 325 324 324 324 327 326 326 327 329 329 330 329 329 327 326 323 325 325 331 328 327 329 328 341 339 338 338 336 335 333 343
306 307 307 308 311 315 317 317 318 321 325 325 324 323 323 323 323 324 326 327 327 328 328 330 330 328 326 327 326 327 327 327 330 327 325 326 330 338 339 339 338 337 335 336 340
307 306 307 307 313 317 317 317 318 322 324 323 323 323 322 322 322 323 328 328 328 329 329 330 329 329 329 328 326 327 326 325 328 329 328 339 338 336 336 338 338 337 337 348 358
307 307 308 308 309 314 316 317 321 323 321 323 323 324 324 323 323 323 323 328 328 328 328 329 330 330 328 327 326 327 325 326 331 334 335 338 340 346 336 338 338 353 356 356 357
306 307 309 311 309 315 317 318 320 322 324 323 323 323 323 324 323 324 322 323 323 326 327 330 332 332 330 328 326 326 329 326 327 328 329 337 338 336 340 342 340 355 352 349 347
306 309 309 316 314 314 317 318 319 320 320 321 322 323 323 323 321 322 324 324 325 326 327 327 330 331 332 329 327 326 327 327 326 328 331 338 344 343 341 337 345 348 352 346 348
308 318 320 318 316 315 316 317 318 318 319 321 321 321 322 323 322 322 325 326 327 327 327 327 327 329 330 331 330 329 327 326 326 327 327 339 343 338 339 342 343 341 352 351 352
311 318 317 317 317 316 316 317 317 318 318 319 321 320 320 321 321 323 325 326 327 328 327 327 330 330 330 329 329 328 327 326 327 330 334 338 343 337 337 336 337 340 343 352 350
311 317 318 317 318 317 316 316 317 318 319 319 321 321 320 319 322 326 327 327 327 328 330 332 326 328 328 329 329 328 328 329 331 332 331 336 342 338 340 339 333 332 336 348 350
312 320 318 319 319 319 319 319 319 318 318 319 320 321 320 319 320 325 324 327 327 331 329 331 334 326 327 334 334 334 332 328 328 329 328 329 342 339 337 335 334 333 331 337 347
315 320 317 321 320 321 321 319 319 321 323 320 321 321 320 320 320 322 323 323 325 328 328 330 334 336 334 334 331 334 333 334 331 328 332 330 341 339 340 335 335 342 333 342 349
314 314 314 316 318 320 321 324 323 320 322 323 321 320 320 321 324 324 324 325 330 328 329 330 335 337 337 336 335 335 335 336 334 330 328 335 340 340 336 339 343 338 334 335 350
309 310 312 314 316 317 320 321 322 322 319 322 323 320 319 320 327 327 327 326 330 336 334 334 332 339 336 337 337 335 337 339 338 335 333 337 336 336 336 340 349 341 346 352 349
Wind_Speed
8 8 9 9 10 10 10 11 12 11 11 10 9 8 7 7 9 10 12 7 4 6 7 2 3 0 4 7 11 11 3 3 5 7 7 19 5 8 16 20 9 10 16 12 25
8 9 9 10 10 11 11 11 12 12 11 10 10 8 7 8 11 14 5 5 7 8 6 5 3 3 7 9 9 6 5 11 8 11 10 20 22 19 6 3 13 17 17 29 27
8 9 10 10 11 11 12 12 11 11 11 10 10 9 8 9 5 2 1 2 3 5 6 6 4 5 11 17 18 12 6 9 10 20 28 24 18 15 8 3 12 28 32 30 27
9 10 10 10 11 11 11 12 11 11 11 10 9 8 8 6 4 3 2 1 3 6 10 7 7 11 5 6 20 7 19 19 21 21 14 2 10 16 9 4 5 31 33 30 30
10 10 10 10 11 11 12 12 11 11 11 10 8 7 7 4 6 7 2 2 5 9 10 7 9 12 7 9 17 11 10 16 21 19 6 5 12 13 10 18 14 31 33 30 31
10 11 11 11 11 11 12 11 11 11 11 10 8 6 5 4 6 7 5 4 5 10 7 6 10 11 15 16 11 20 20 11 13 15 7 3 3 4 17 23 22 29 31 29 29
10 11 11 12 12 12 12 11 11 11 11 9 7 8 8 8 7 6 6 5 5 8 5 5 13 15 21 9 19 21 10 9 15 20 10 9 2 6 16 22 25 28 29 26 28
10 11 11 12 12 13 13 12 11 11 11 8 7 8 6 6 8 9 6 5 5 1 7 12 10 16 16 20 18 10 8 5 11 15 11 18 7 5 3 8 6 32 31 32 29
10 11 11 12 13 13 13 14 12 12 10 8 4 4 7 11 16 13 8 10 7 10 10 9 9 13 16 7 6 6 1 7 16 22 15 5 8 4 14 17 26 31 35 38 32
10 11 11 11 13 14 13 15 12 9 9 8 8 6 12 13 12 17 15 11 9 7 8 6 4 4 5 3 6 9 5 3 9 8 12 13 16 10 25 22 16 26 29 33 32
12 11 11 11 11 14 11 14 7 2 10 11 7 9 11 7 11 15 16 13 10 10 6 10 3 7 11 11 14 11 9 10 11 17 4 9 7 13 19 25 18 44 21 47 31
14 14 13 11 10 10 9 11 6 7 13 20 25 27 25 14 10 13 17 14 12 8 10 5 9 13 15 15 12 9 7 7 4 20 13 11 7 5 6 9 22 33 37 43 34
16 16 16 13 10 4 8 7 11 11 6 16 24 24 25 20 15 22 23 23 8 9 9 9 14 12 14 11 10 8 6 8 7 9 10 4 3 3 4 6 6 27 14 9 31
16 14 15 13 7 5 4 3 8 6 3 7 10 15 24 22 15 20 30 25 7 13 12 9 17 17 10 6 7 8 10 12 10 2 3 2 5 4 2 5 1 5 16 14 7
16 14 10 9 7 6 2 6 8 5 4 5 9 7 16 24 6 24 29 27 15 13 7 9 9 10 10 9 8 10 10 9 5 7 7 10 3 5 4 2 5 15 13 13 13
15 15 10 9 10 6 6 9 4 0 7 4 9 7 7 12 20 18 26 24 19 11 12 14 22 11 9 9 11 8 6 8 2 3 4 8 3 3 6 7 3 11 21 17 19
15 14 13 12 7 3 2 1 1 4 7 6 7 12 10 10 14 11 13 12 8 6 9 13 15 13 4 4 11 6 2 4 5 3 7 2 2 4 7 7 6 13 26 21 31
16 15 13 13 14 5 2 1 5 8 11 11 6 13 14 13 15 16 10 12 12 11 6 8 8 12 11 10 9 7 9 6 5 3 4 8 3 5 6 8 16 28 33 31 30
16 10 13 6 13 12 3 3 7 5 8 14 15 7 7 14 13 17 16 14 12 11 9 4 12 12 17 9 11 7 2 11 4 4 3 3 4 5 6 7 11 26 32 29 27
17 12 15 9 10 16 2 5 7 11 16 14 13 7 5 7 8 7 11 14 14 17 18 10 10 9 11 14 8 7 5 2 2 3 6 5 4 4 7 8 3 17 22 27 31
11 7 3 19 13 12 4 6 8 21 19 6 12 10 11 8 10 12 10 7 18 15 15 15 7 13 7 2 9 2 3 3 2 4 5 2 5 9 14 5 5 15 22 31 35
1 3 15 26 8 7 7 5 9 21 30 16 8 7 9 14 13 14 11 10 14 18 12 11 7 5 10 14 6 5 8 8 5 9 1 3 4 16 10 8 11 10 9 26 30
9 9 15 17 4 7 9 17 23 19 19 16 9 6 9 10 7 8 11 8 19 9 6 1 3 1 9 8 5 6 8 6 6 4 3 2 3 4 12 12 17 15 19 2 31
5 3 10 19 15 10 12 13 15 24 22 25 14 8 8 9 9 8 12 7 22 4 8 8 2 8 7 6 2 3 8 8 6 4 6 6 9 8 14 16 11 21 35 26 26
3 3 9 3 4 9 9 12 16 17 19 24 6 6 10 7 8 9 11 10 15 3 3 3 1 3 8 7 13 11 10 8 7 9 7 8 15 12 12 14 13 26 28 37 29
9 8 12 16 14 10 9 8 14 19 16 5 6 10 14 8 8 8 8 6 5 10 3 2 3 4 7 11 15 6 21 10 11 12 8 7 3 7 19 36 30 42 45 29 25
15 9 6 10 9 7 8 12 15 14 24 21 15 12 12 14 11 14 17 15 7 2 3 3 3 1 5 9 12 8 3 6 4 2 3 6 7 8 5 8 26 25 24 22 17
Wind_Direction
20 16 11 11 10 7 5 0 354 353 350 345 346 331 315 303 294 281 268 245 240 267 271 255 351 130 297 258 250 264 94 207 238 214 243 277 68 87 124 147 178 115 146 162 160
8 5 2 3 1 0 359 358 355 352 349 342 342 335 317 307 298 285 282 243 256 261 241 157 222 233 244 255 242 169 164 200 218 218 267 278 119 42 281 183 108 130 144 154 162
356 355 354 354 352 352 352 352 353 349 346 341 337 335 325 324 321 328 319 194 251 243 206 178 231 260 260 265 257 229 205 224 245 240 240 265 111 180 157 298 183 154 150 162 164
344 345 345 345 343 343 345 345 347 345 344 339 334 334 330 328 38 324 308 262 224 200 159 207 247 260 261 270 268 256 247 226 264 239 231 307 120 159 142 192 155 163 162 163 164
337 336 335 337 336 335 336 338 339 338 338 335 331 330 333 301 270 296 267 247 205 188 164 207 235 266 251 262 283 266 254 263 240 265 272 309 106 133 136 140 148 162 164 168 173
329 329 330 332 330 329 328 331 330 331 331 329 323 317 316 269 277 276 227 216 209 192 172 226 241 250 275 286 292 299 300 313 283 289 269 107 133 101 142 151 150 167 169 173 172
325 328 329 330 328 326 324 324 320 321 323 318 312 310 290 241 273 290 214 212 207 179 204 255 262 281 299 307 283 305 281 302 12 357 303 164 120 142 131 141 158 178 170 176 170
321 325 328 330 329 328 324 317 314 310 311 305 302 305 267 171 244 280 185 141 195 28 257 276 266 283 290 291 303 306 306 15 326 352 316 15 254 230 135 56 216 183 171 170 173
317 323 327 332 333 333 327 314 306 300 298 290 258 304 271 213 219 217 220 189 202 228 261 254 273 276 280 277 295 265 218 56 347 308 298 97 298 189 148 166 251 344 164 166 168
310 314 320 329 335 337 332 317 310 294 282 269 233 289 228 228 220 193 200 200 191 227 256 250 284 247 287 249 247 277 110 166 212 264 258 284 274 195 168 171 108 88 351 321 166
303 302 307 319 334 338 349 357 351 10 316 238 235 254 295 157 146 189 190 206 197 217 227 212 186 238 241 235 242 264 283 181 221 237 294 253 281 169 160 175 131 113 159 262 184
302 298 297 306 327 334 336 359 44 336 295 274 259 263 257 244 180 198 186 194 195 217 213 282 236 239 255 273 283 303 321 302 251 215 192 245 159 211 218 167 147 134 162 213 246
306 301 294 293 313 326 329 335 315 349 271 282 244 231 233 234 205 200 190 203 196 225 231 211 248 243 231 262 292 290 272 281 261 303 202 177 205 222 328 25 133 169 186 106 5
311 308 302 291 281 258 360 18 336 350 300 265 204 221 216 219 227 229 194 189 226 218 222 233 249 260 262 244 254 274 270 276 266 266 251 92 260 350 354 273 307 88 49 331 20
317 308 304 292 245 233 341 311 335 334 334 226 178 169 184 195 236 217 201 193 213 240 200 246 254 252 246 257 248 243 270 290 360 14 23 311 15 293 130 299 218 126 134 163 207
322 307 293 275 244 274 294 327 330 319 246 258 134 158 164 192 233 278 178 192 223 248 253 256 257 259 225 237 249 263 295 337 350 53 326 257 213 225 199 186 202 152 185 205 254
314 300 279 247 205 208 210 99 119 231 286 238 166 172 206 190 225 237 171 190 207 209 250 274 269 258 230 318 309 218 48 345 336 340 233 270 48 311 246 196 163 151 191 179 138
310 292 273 244 215 210 141 281 232 240 243 309 278 207 188 202 209 222 195 196 205 231 266 224 273 234 207 190 214 234 157 164 243 242 278 353 122 263 274 281 197 150 135 148 151
318 296 262 205 202 178 215 210 204 227 278 344 335 305 225 200 209 201 210 196 208 189 219 266 243 262 217 194 173 267 211 203 214 276 355 225 310 46 346 48 108 142 136 153 148
322 313 255 153 173 177 200 258 243 280 313 327 312 308 271 267 287 253 204 199 213 213 199 251 277 283 297 194 186 169 241 7 332 269 272 231 51 179 339 308 245 132 141 152 150
326 306 280 158 170 173 214 236 275 277 279 279 314 318 321 321 318 299 213 218 208 218 199 219 186 276 341 315 169 166 240 287 164 171 194 124 263 183 188 272 306 53 171 156 155
352 267 153 158 171 203 232 251 269 287 296 297 256 289 299 304 307 312 297 182 236 209 206 203 187 209 259 277 205 184 201 194 144 281 163 134 35 130 174 155 115 20 94 172 155
337 290 177 180 220 236 240 241 258 270 272 277 280 217 270 281 304 303 324 318 344 317 147 174 181 59 318 327 236 200 241 215 180 131 250 133 198 240 97 80 55 314 315 223 151
322 275 231 210 228 263 284 275 258 245 254 271 275 272 270 268 285 282 303 322 322 101 42 60 31 162 212 220 183 291 258 234 180 138 235 225 145 212 134 147 135 127 307 301 167
266 323 15 342 259 329 290 266 291 289 287 235 268 270 280 248 274 278 285 291 300 250 72 72 305 330 304 287 278 289 234 268 263 229 170 212 176 174 170 148 145 143 174 221 162
354 356 331 304 325 319 302 292 274 272 280 262 183 251 268 262 228 255 272 285 267 324 301 137 269 306 304 306 303 344 293 239 245 222 227 113 93 181 162 136 149 143 156 213 166
359 327 312 302 315 305 288 287 300 298 274 288 289 211 242 267 342 321 305 291 299 18 304 221 141 321 268 296 308 302 253 356 307 344 166 162 185 197 100 126 134 143 144 166 150